TimePDT,TemperatureF,Dew PointF,Humidity,Sea Level PressureIn,VisibilityMPH,Wind Direction,Wind SpeedMPH,Gust SpeedMPH,PrecipitationIn,Events,Conditions,WindDirDegrees,DateUTC
12:56 AM,50.0,48.0,93,30.32,10.0,SW,3.5,-,0.02,Rain,Light Rain,230,2013-04-19 07:56:00
1:56 AM,50.0,48.0,93,30.31,10.0,South,5.8,-,0.01,Rain,Light Rain,180,2013-04-19 08:56:00
2:56 AM,50.0,48.9,96,30.29,10.0,South,9.2,-,0.03,Rain,Light Rain,190,2013-04-19 09:56:00
3:56 AM,50.0,48.0,93,30.27,10.0,SSE,9.2,-,0.03,Rain,Light Rain,160,2013-04-19 10:56:00
4:56 AM,48.9,48.0,97,30.24,10.0,South,9.2,-,0.01,Rain,Light Rain,170,2013-04-19 11:56:00
5:56 AM,50.0,48.0,93,30.22,10.0,South,12.7,-,0.00,,Overcast,180,2013-04-19 12:56:00
6:41 AM,48.2,48.2,100,30.22,6.0,South,8.1,-,0.09,Rain,Rain,190,2013-04-19 13:41:00
6:56 AM,50.0,48.0,93,30.21,3.0,South,10.4,-,0.12,Rain,Rain,170,2013-04-19 13:56:00
8:56 AM,50.0,48.0,93,30.20,7.0,South,10.4,-,0.00,,Overcast,180,2013-04-19 15:56:00
9:56 AM,51.1,48.9,92,30.19,10.0,SSE,15.0,-,N/A,,Overcast,160,2013-04-19 16:56:00
10:03 AM,51.8,48.2,88,30.19,10.0,South,15.0,23.0,N/A,,Overcast,170,2013-04-19 17:03:00
10:56 AM,52.0,50.0,93,30.20,7.0,South,16.1,21.9,0.00,,Overcast,170,2013-04-19 17:56:00
11:56 AM,55.0,51.1,86,30.21,10.0,SSW,13.8,19.6,N/A,,Overcast,200,2013-04-19 18:56:00
12:56 PM,59.0,53.1,81,30.22,10.0,SSW,13.8,21.9,N/A,,Mostly Cloudy,200,2013-04-19 19:56:00
1:56 PM,57.0,53.1,87,30.23,10.0,West,6.9,-,0.00,Rain,Light Rain,280,2013-04-19 20:56:00
2:03 PM,57.2,51.8,82,30.23,10.0,SW,6.9,-,N/A,,Overcast,230,2013-04-19 21:03:00
2:56 PM,59.0,50.0,72,30.24,10.0,West,5.8,-,N/A,,Mostly Cloudy,280,2013-04-19 21:56:00
3:56 PM,57.9,50.0,75,30.25,10.0,WSW,3.5,-,N/A,,Overcast,240,2013-04-19 22:56:00
4:56 PM,57.0,48.0,72,30.26,10.0,SW,10.4,16.1,0.00,Rain,Light Rain,230,2013-04-19 23:56:00
5:07 PM,57.2,48.2,72,30.26,10.0,WSW,9.2,-,0.00,,Overcast,240,2013-04-20 00:07:00
5:56 PM,55.0,48.0,77,30.27,10.0,WNW,6.9,-,0.00,,Overcast,290,2013-04-20 00:56:00
6:21 PM,55.4,46.4,72,30.27,10.0,WSW,6.9,-,N/A,,Overcast,250,2013-04-20 01:21:00
6:56 PM,55.9,46.9,72,30.26,10.0,SSW,8.1,-,N/A,,Overcast,210,2013-04-20 01:56:00
7:56 PM,53.1,46.0,77,30.27,10.0,WSW,8.1,-,N/A,,Mostly Cloudy,250,2013-04-20 02:56:00
8:56 PM,51.1,46.0,83,30.28,10.0,SSW,3.5,-,N/A,,Mostly Cloudy,200,2013-04-20 03:56:00
9:12 PM,50.0,46.4,87,30.29,10.0,SSW,4.6,-,N/A,,Mostly Cloudy,200,2013-04-20 04:12:00
9:56 PM,50.0,46.0,86,30.30,10.0,SW,5.8,-,N/A,,Overcast,230,2013-04-20 04:56:00
10:13 PM,50.0,46.4,87,30.30,10.0,SW,5.8,-,N/A,,Overcast,230,2013-04-20 05:13:00
10:56 PM,48.9,46.0,90,30.31,10.0,SSE,4.6,-,N/A,,Overcast,160,2013-04-20 05:56:00
11:56 PM,46.9,45.0,93,30.31,10.0,South,5.8,-,N/A,,Scattered Clouds,190,2013-04-20 06:56:00